BAW2664 EGLL-LIRF

Flight info

Callsign BAW2664
Flight time 2h 9m
Altitude 35000
Route MODMI M185 MID L612 BOGNA UL612 OGULO DCT OKASI DCT OKEKO DCT MOU DCT MADIV DCT MOKIP DCT TUFTA DCT KOGAS DCT MEDAM DCT NITAM DCT MOGBO DCT ELB DCT ELKAP
Aircraft A320/M-SDE3FGHIRWY/LB1

Departure

Time 2026-05-06 17:51
Airport London Heathrow Airport (EGLL)

Arrival

Time 2026-05-06 20:00
Airport Rome–Fiumicino Leonardo da Vinci International Airport (LIRF)
Time Latitude Longitude Altitude Speed Heading
2026-05-06 17:07 51.47086 -0.48593 0 ft 0 kts 269°
2026-05-06 17:38 51.47086 -0.48585 0 ft 3 kts 269°
2026-05-06 17:38 51.47087 -0.48547 44 ft 1 kts 270°
2026-05-06 17:38 51.47088 -0.48508 87 ft 4 kts 252°
2026-05-06 17:38 51.47101 -0.48477 88 ft 4 kts 193°
2026-05-06 17:39 51.47116 -0.48474 88 ft 0 kts 179°
2026-05-06 17:46 51.47114 -0.48474 88 ft 1 kts 179°
2026-05-06 17:47 51.47090 -0.48474 89 ft 6 kts 179°
2026-05-06 17:47 51.47030 -0.48473 87 ft 11 kts 179°
2026-05-06 17:47 51.46947 -0.48472 88 ft 13 kts 179°
2026-05-06 17:47 51.46852 -0.48471 87 ft 15 kts 179°
2026-05-06 17:48 51.46743 -0.48470 87 ft 17 kts 179°
2026-05-06 17:48 51.46631 -0.48470 87 ft 9 kts 180°
2026-05-06 17:48 51.46602 -0.48470 87 ft 0 kts 180°
2026-05-06 17:48 51.46595 -0.48470 88 ft 3 kts 180°
2026-05-06 17:49 51.46569 -0.48470 88 ft 8 kts 180°
2026-05-06 17:49 51.46496 -0.48469 89 ft 11 kts 175°
2026-05-06 17:49 51.46478 -0.48405 89 ft 0 kts 89°
2026-05-06 17:50 51.46478 -0.48373 90 ft 15 kts 89°
2026-05-06 17:50 51.46482 -0.47695 86 ft 104 kts 90°
2026-05-06 17:50 51.46488 -0.46173 88 ft 167 kts 90°
2026-05-06 17:50 51.46481 -0.44101 384 ft 196 kts 89°
2026-05-06 17:51 51.46444 -0.41900 1188 ft 206 kts 97°
2026-05-06 17:51 51.45829 -0.39751 1994 ft 218 kts 122°
2026-05-06 17:51 51.44829 -0.37940 2762 ft 222 kts 148°
2026-05-06 17:51 51.43371 -0.37037 3255 ft 229 kts 159°
2026-05-06 17:52 51.41830 -0.36249 3737 ft 234 kts 158°
2026-05-06 17:52 51.40214 -0.35847 4224 ft 240 kts 180°
2026-05-06 17:52 51.39113 -0.36187 4566 ft 249 kts 197°
2026-05-06 17:52 51.36959 -0.37819 5251 ft 271 kts 202°
2026-05-06 17:53 51.35231 -0.39185 5759 ft 278 kts 202°
2026-05-06 17:53 51.33502 -0.40554 6260 ft 277 kts 202°
2026-05-06 17:53 51.31782 -0.41918 6761 ft 274 kts 203°
2026-05-06 17:53 51.30083 -0.43259 7260 ft 272 kts 203°
2026-05-06 17:54 51.28388 -0.44593 7757 ft 271 kts 204°
2026-05-06 17:54 51.27243 -0.45493 8102 ft 271 kts 204°
2026-05-06 17:54 51.25557 -0.46833 8605 ft 271 kts 205°
2026-05-06 17:54 51.23860 -0.48189 9103 ft 273 kts 206°
2026-05-06 17:55 51.22172 -0.49532 9599 ft 276 kts 206°
2026-05-06 17:55 51.20437 -0.50888 10105 ft 279 kts 206°
2026-05-06 17:55 51.18676 -0.52251 10610 ft 283 kts 207°
2026-05-06 17:55 51.16887 -0.53633 11139 ft 287 kts 207°
2026-05-06 17:56 51.15068 -0.55037 11737 ft 294 kts 207°
2026-05-06 17:56 51.13211 -0.56469 12343 ft 300 kts 207°
2026-05-06 17:56 51.11317 -0.57931 12952 ft 306 kts 207°
2026-05-06 17:56 51.09312 -0.59286 13263 ft 324 kts 198°
2026-05-06 17:57 51.07024 -0.59984 13396 ft 346 kts 184°
2026-05-06 17:57 51.04579 -0.59794 13753 ft 358 kts 170°
2026-05-06 17:57 51.02170 -0.58666 14312 ft 363 kts 156°
2026-05-06 17:57 50.99964 -0.56675 14891 ft 367 kts 146°
2026-05-06 17:58 50.97840 -0.54398 15474 ft 370 kts 146°
2026-05-06 17:58 50.95696 -0.52112 16046 ft 373 kts 146°
2026-05-06 17:58 50.93531 -0.49812 16591 ft 376 kts 146°
2026-05-06 17:58 50.91351 -0.47503 17155 ft 379 kts 146°
2026-05-06 17:59 50.89149 -0.45171 17673 ft 382 kts 147°
2026-05-06 17:59 50.86928 -0.42824 18212 ft 385 kts 147°
2026-05-06 17:59 50.84724 -0.40497 18738 ft 388 kts 147°
2026-05-06 17:59 50.82447 -0.38085 19286 ft 390 kts 147°
2026-05-06 18:00 50.80179 -0.35681 19788 ft 394 kts 147°
2026-05-06 18:00 50.77929 -0.33299 20319 ft 395 kts 147°
2026-05-06 18:00 50.75641 -0.30883 20853 ft 397 kts 148°
2026-05-06 18:00 50.73343 -0.28462 21383 ft 397 kts 148°
2026-05-06 18:01 50.71039 -0.26041 21894 ft 398 kts 148°
2026-05-06 18:01 50.68735 -0.23621 22386 ft 398 kts 147°
2026-05-06 18:01 50.66427 -0.21196 22873 ft 399 kts 147°
2026-05-06 18:01 50.64111 -0.18764 23330 ft 401 kts 147°
2026-05-06 18:02 50.61787 -0.16329 23773 ft 402 kts 147°
2026-05-06 18:02 50.59452 -0.13886 24192 ft 404 kts 146°
2026-05-06 18:02 50.57102 -0.11431 24578 ft 407 kts 146°
2026-05-06 18:02 50.54737 -0.08966 24952 ft 409 kts 146°
2026-05-06 18:03 50.52352 -0.06487 25300 ft 413 kts 146°
2026-05-06 18:03 50.49948 -0.03990 25611 ft 417 kts 146°
2026-05-06 18:03 50.47514 -0.01465 25921 ft 420 kts 145°
2026-05-06 18:03 50.45066 0.01077 26213 ft 424 kts 145°
2026-05-06 18:04 50.42592 0.03646 26499 ft 428 kts 145°
2026-05-06 18:04 50.40095 0.06230 26780 ft 432 kts 146°
2026-05-06 18:04 50.37607 0.08801 27061 ft 436 kts 146°
2026-05-06 18:04 50.35071 0.11421 27383 ft 438 kts 146°
2026-05-06 18:05 50.32524 0.14054 27811 ft 438 kts 146°
2026-05-06 18:05 50.29987 0.16674 28290 ft 436 kts 146°
2026-05-06 18:05 50.27455 0.19285 28756 ft 435 kts 146°
2026-05-06 18:05 50.24931 0.21877 29206 ft 434 kts 146°
2026-05-06 18:06 50.22412 0.24458 29664 ft 433 kts 146°
2026-05-06 18:06 50.19900 0.27030 30121 ft 431 kts 146°
2026-05-06 18:06 50.17391 0.29607 30567 ft 430 kts 146°
2026-05-06 18:06 50.14897 0.32169 31039 ft 428 kts 146°
2026-05-06 18:07 50.12419 0.34717 31521 ft 426 kts 146°
2026-05-06 18:07 50.09949 0.37253 32002 ft 423 kts 146°
2026-05-06 18:07 50.07500 0.39765 32485 ft 421 kts 146°
2026-05-06 18:07 50.05060 0.42264 32929 ft 419 kts 146°
2026-05-06 18:08 50.02627 0.44753 33354 ft 417 kts 146°
2026-05-06 18:08 50.00203 0.47228 33739 ft 416 kts 147°
2026-05-06 18:08 49.97787 0.49685 34102 ft 415 kts 147°
2026-05-06 18:08 49.95369 0.52139 34431 ft 415 kts 147°
2026-05-06 18:09 49.92954 0.54589 34738 ft 415 kts 147°
2026-05-06 18:09 49.90534 0.57046 34932 ft 416 kts 147°
2026-05-06 18:09 49.85724 0.61973 34977 ft 418 kts 144°
2026-05-06 18:10 49.81174 0.67680 34999 ft 423 kts 142°
2026-05-06 18:10 49.76581 0.73462 35007 ft 427 kts 141°
2026-05-06 18:11 49.71947 0.79273 35002 ft 430 kts 141°
2026-05-06 18:11 49.67293 0.85073 35005 ft 430 kts 141°
2026-05-06 18:12 49.62642 0.90880 35003 ft 430 kts 141°
2026-05-06 18:12 49.57978 0.96699 35010 ft 430 kts 141°
2026-05-06 18:13 49.53324 1.02496 35010 ft 430 kts 141°
2026-05-06 18:13 49.48659 1.08278 35008 ft 430 kts 141°
2026-05-06 18:14 49.43993 1.14042 35012 ft 430 kts 141°
2026-05-06 18:14 49.39352 1.19758 35012 ft 431 kts 141°
2026-05-06 18:15 49.34677 1.25509 35013 ft 431 kts 141°
2026-05-06 18:15 49.29998 1.31251 35016 ft 431 kts 141°
2026-05-06 18:16 49.25320 1.36990 35016 ft 431 kts 141°
2026-05-06 18:16 49.20634 1.42705 35021 ft 431 kts 141°
2026-05-06 18:17 49.15950 1.48398 35015 ft 430 kts 141°
2026-05-06 18:17 49.11258 1.54099 35018 ft 431 kts 141°
2026-05-06 18:18 49.06574 1.59784 35017 ft 431 kts 141°
2026-05-06 18:18 49.01879 1.65467 35018 ft 430 kts 141°
2026-05-06 18:19 48.97185 1.71126 35017 ft 430 kts 141°
2026-05-06 18:19 48.92511 1.76744 35015 ft 430 kts 141°
2026-05-06 18:20 48.87820 1.82375 34945 ft 425 kts 142°
2026-05-06 18:20 48.83210 1.87899 34945 ft 425 kts 142°
2026-05-06 18:21 48.78569 1.93448 34957 ft 424 kts 142°
2026-05-06 18:21 48.74702 1.98053 34968 ft 423 kts 142°
2026-05-06 18:22 48.70064 2.03552 34976 ft 421 kts 142°
2026-05-06 18:22 48.65463 2.09010 34977 ft 419 kts 142°
2026-05-06 18:23 48.60882 2.14439 34977 ft 417 kts 141°
2026-05-06 18:23 48.56371 2.19941 34973 ft 416 kts 135°
2026-05-06 18:24 48.52294 2.26146 34962 ft 416 kts 134°
2026-05-06 18:24 48.48231 2.32322 34948 ft 418 kts 134°
2026-05-06 18:25 48.44123 2.38528 34945 ft 419 kts 134°
2026-05-06 18:25 48.40001 2.44744 34944 ft 420 kts 134°
2026-05-06 18:26 48.35866 2.50958 34949 ft 420 kts 134°
2026-05-06 18:26 48.31731 2.57170 34953 ft 420 kts 134°
2026-05-06 18:27 48.27282 2.62852 34955 ft 421 kts 147°
2026-05-06 18:27 48.22069 2.66747 34954 ft 422 kts 154°
2026-05-06 18:28 48.16825 2.70708 34953 ft 422 kts 150°
2026-05-06 18:28 48.11690 2.74971 34955 ft 422 kts 150°
2026-05-06 18:29 48.06468 2.78987 34957 ft 422 kts 156°
2026-05-06 18:29 48.01062 2.82436 34961 ft 423 kts 156°
2026-05-06 18:30 47.95640 2.85860 34963 ft 422 kts 156°
2026-05-06 18:30 47.90238 2.89283 34969 ft 421 kts 156°
2026-05-06 18:31 47.84844 2.92697 34972 ft 420 kts 157°
2026-05-06 18:31 47.79464 2.96094 34972 ft 420 kts 157°
2026-05-06 18:32 47.74093 2.99483 34970 ft 419 kts 157°
2026-05-06 18:32 47.68761 3.02831 34967 ft 419 kts 157°
2026-05-06 18:33 47.63398 3.06189 34965 ft 418 kts 157°
2026-05-06 18:33 47.58039 3.09545 34961 ft 418 kts 157°
2026-05-06 18:34 47.52678 3.12889 34961 ft 418 kts 157°
2026-05-06 18:34 47.47320 3.16230 34959 ft 418 kts 157°
2026-05-06 18:35 47.41955 3.19566 34957 ft 418 kts 157°
2026-05-06 18:35 47.36594 3.22898 34956 ft 418 kts 157°
2026-05-06 18:36 47.31229 3.26225 34956 ft 418 kts 157°
2026-05-06 18:36 47.25861 3.29534 34954 ft 418 kts 157°
2026-05-06 18:37 47.21392 3.32273 34955 ft 418 kts 157°
2026-05-06 18:37 47.15112 3.36126 34958 ft 419 kts 157°
2026-05-06 18:38 47.09731 3.39429 34957 ft 419 kts 157°
2026-05-06 18:38 47.04352 3.42719 34959 ft 419 kts 157°
2026-05-06 18:39 46.98969 3.46009 34961 ft 419 kts 157°
2026-05-06 18:40 46.90899 3.50921 34970 ft 417 kts 158°
2026-05-06 18:40 46.85646 3.54111 34950 ft 409 kts 159°
2026-05-06 18:41 46.80373 3.57304 34947 ft 410 kts 159°
2026-05-06 18:41 46.75245 3.60938 34949 ft 413 kts 147°
2026-05-06 18:41 46.73027 3.63611 34946 ft 415 kts 136°
2026-05-06 18:42 46.71163 3.66839 34945 ft 418 kts 126°
2026-05-06 18:42 46.68753 3.74568 34943 ft 424 kts 106°
2026-05-06 18:43 46.67345 3.82916 34942 ft 425 kts 106°
2026-05-06 18:43 46.65913 3.91262 34948 ft 425 kts 106°
2026-05-06 18:44 46.64476 3.99618 34942 ft 426 kts 106°
2026-05-06 18:44 46.63273 4.06569 34947 ft 426 kts 106°
2026-05-06 18:45 46.61813 4.14920 34951 ft 426 kts 106°
2026-05-06 18:45 46.60347 4.23270 34950 ft 426 kts 107°
2026-05-06 18:46 46.58881 4.31606 34951 ft 426 kts 107°
2026-05-06 18:46 46.57425 4.39895 34951 ft 426 kts 107°
2026-05-06 18:47 46.55946 4.48237 34954 ft 426 kts 107°
2026-05-06 18:47 46.54458 4.56572 34953 ft 426 kts 107°
2026-05-06 18:48 46.52968 4.64899 34958 ft 426 kts 107°
2026-05-06 18:48 46.51476 4.73234 34960 ft 426 kts 107°
2026-05-06 18:49 46.49972 4.81549 34959 ft 426 kts 107°
2026-05-06 18:49 46.48453 4.89873 34961 ft 427 kts 107°
2026-05-06 18:50 46.46937 4.98195 34961 ft 426 kts 108°
2026-05-06 18:50 46.45410 5.06517 34949 ft 427 kts 108°
2026-05-06 18:51 46.43889 5.14839 34938 ft 427 kts 108°
2026-05-06 18:51 46.42361 5.23157 34934 ft 427 kts 109°
2026-05-06 18:52 46.40824 5.31422 34932 ft 427 kts 109°
2026-05-06 18:52 46.39078 5.39623 34924 ft 423 kts 118°
2026-05-06 18:53 46.36040 5.46799 34919 ft 415 kts 134°
2026-05-06 18:53 46.32292 5.53156 34913 ft 415 kts 134°
2026-05-06 18:54 46.28542 5.59527 34919 ft 416 kts 134°
2026-05-06 18:54 46.24787 5.65889 34917 ft 416 kts 134°
2026-05-06 18:55 46.21010 5.72245 34914 ft 417 kts 134°
2026-05-06 18:55 46.17227 5.78607 34916 ft 418 kts 134°
2026-05-06 18:56 46.13436 5.84974 34926 ft 418 kts 134°
2026-05-06 18:56 46.09642 5.91329 34922 ft 418 kts 135°
2026-05-06 18:57 46.05842 5.97673 34928 ft 418 kts 134°
2026-05-06 18:57 46.02069 6.03974 34934 ft 418 kts 134°
2026-05-06 18:58 45.98267 6.10297 34930 ft 418 kts 135°
2026-05-06 18:58 45.94459 6.16602 34931 ft 418 kts 135°
2026-05-06 18:59 45.90652 6.22896 34931 ft 418 kts 135°
2026-05-06 18:59 45.86839 6.29191 34920 ft 418 kts 135°
2026-05-06 19:00 45.83016 6.35483 34913 ft 419 kts 136°
2026-05-06 19:00 45.78825 6.41145 34904 ft 408 kts 152°
2026-05-06 19:01 45.74189 6.45853 34923 ft 409 kts 152°
2026-05-06 19:01 45.69557 6.50572 34929 ft 409 kts 151°
2026-05-06 19:02 45.64920 6.55291 34918 ft 409 kts 152°
2026-05-06 19:02 45.60274 6.59999 34904 ft 410 kts 152°
2026-05-06 19:03 45.55601 6.64721 34916 ft 412 kts 152°
2026-05-06 19:03 45.50924 6.69446 34927 ft 411 kts 152°
2026-05-06 19:04 45.46280 6.74120 34917 ft 412 kts 152°
2026-05-06 19:04 45.41590 6.78834 34929 ft 413 kts 152°
2026-05-06 19:05 45.36893 6.83548 34906 ft 414 kts 152°
2026-05-06 19:05 45.32183 6.88266 34904 ft 414 kts 152°
2026-05-06 19:06 45.27466 6.92980 34922 ft 415 kts 151°
2026-05-06 19:06 45.23128 6.98561 34916 ft 424 kts 143°
2026-05-06 19:07 45.18904 7.04395 34933 ft 424 kts 143°
2026-05-06 19:07 45.14680 7.10198 34944 ft 422 kts 143°
2026-05-06 19:08 45.10541 7.16083 34954 ft 425 kts 137°
2026-05-06 19:08 45.07068 7.22933 34941 ft 428 kts 132°
2026-05-06 19:09 45.03648 7.29820 34943 ft 427 kts 133°
2026-05-06 19:09 45.00229 7.36678 34950 ft 426 kts 133°
2026-05-06 19:10 44.96573 7.43078 34842 ft 414 kts 145°
2026-05-06 19:10 44.92476 7.48786 34814 ft 414 kts 144°
2026-05-06 19:11 44.88363 7.54509 34817 ft 416 kts 144°
2026-05-06 19:11 44.84240 7.60259 34820 ft 417 kts 144°
2026-05-06 19:12 44.80109 7.66013 34825 ft 418 kts 144°
2026-05-06 19:12 44.75972 7.71776 34832 ft 418 kts 144°
2026-05-06 19:13 44.71824 7.77525 34835 ft 419 kts 144°
2026-05-06 19:13 44.67671 7.83266 34835 ft 419 kts 144°
2026-05-06 19:14 44.63510 7.89010 34838 ft 420 kts 144°
2026-05-06 19:14 44.59338 7.94754 34836 ft 420 kts 144°
2026-05-06 19:15 44.55155 8.00495 34838 ft 421 kts 144°
2026-05-06 19:15 44.50973 8.06241 34834 ft 421 kts 144°
2026-05-06 19:16 44.46804 8.11946 34839 ft 421 kts 145°
2026-05-06 19:16 44.42602 8.17674 34848 ft 422 kts 145°
2026-05-06 19:17 44.38400 8.23391 34847 ft 422 kts 145°
2026-05-06 19:17 44.34196 8.29116 34847 ft 421 kts 145°
2026-05-06 19:18 44.29995 8.34813 34843 ft 421 kts 145°
2026-05-06 19:18 44.25789 8.40506 34850 ft 421 kts 145°
2026-05-06 19:19 44.21589 8.46184 34856 ft 420 kts 145°
2026-05-06 19:19 44.17388 8.51845 34859 ft 420 kts 145°
2026-05-06 19:20 44.13191 8.57487 34857 ft 419 kts 145°
2026-05-06 19:20 44.08989 8.63122 34854 ft 420 kts 145°
2026-05-06 19:21 44.04784 8.68755 34853 ft 420 kts 145°
2026-05-06 19:21 44.00602 8.74355 34854 ft 420 kts 145°
2026-05-06 19:22 43.96391 8.79983 34854 ft 420 kts 145°
2026-05-06 19:22 43.92174 8.85594 34855 ft 420 kts 145°
2026-05-06 19:23 43.87953 8.91201 34856 ft 420 kts 145°
2026-05-06 19:23 43.83731 8.96812 34857 ft 420 kts 145°
2026-05-06 19:24 43.79507 9.02400 34857 ft 420 kts 145°
2026-05-06 19:24 43.75276 9.07969 34857 ft 420 kts 145°
2026-05-06 19:25 43.71041 9.13542 34857 ft 420 kts 145°
2026-05-06 19:25 43.66814 9.19114 34856 ft 420 kts 145°
2026-05-06 19:26 43.62584 9.24670 34856 ft 420 kts 145°
2026-05-06 19:26 43.58346 9.30215 34855 ft 419 kts 145°
2026-05-06 19:27 43.54113 9.35748 34855 ft 419 kts 145°
2026-05-06 19:27 43.49903 9.41243 34854 ft 419 kts 145°
2026-05-06 19:28 43.45662 9.46761 34853 ft 419 kts 145°
2026-05-06 19:28 43.41426 9.52269 34853 ft 419 kts 145°
2026-05-06 19:29 43.37181 9.57773 34853 ft 419 kts 146°
2026-05-06 19:29 43.32936 9.63266 34813 ft 419 kts 145°
2026-05-06 19:29 43.30814 9.66011 34616 ft 418 kts 146°
2026-05-06 19:30 43.28696 9.68742 34414 ft 417 kts 146°
2026-05-06 19:30 43.26581 9.71458 34221 ft 417 kts 146°
2026-05-06 19:30 43.24462 9.74179 34011 ft 417 kts 146°
2026-05-06 19:30 43.22345 9.76898 33816 ft 417 kts 146°
2026-05-06 19:31 43.20224 9.79622 33616 ft 418 kts 146°
2026-05-06 19:31 43.18102 9.82347 33416 ft 418 kts 146°
2026-05-06 19:31 43.13847 9.87807 33021 ft 420 kts 146°
2026-05-06 19:32 43.09568 9.93288 32950 ft 427 kts 146°
2026-05-06 19:32 43.07373 9.96083 32831 ft 436 kts 145°
2026-05-06 19:32 43.05900 9.97960 32595 ft 438 kts 145°
2026-05-06 19:33 43.03676 10.00804 32244 ft 437 kts 145°
2026-05-06 19:33 43.01461 10.03643 31894 ft 435 kts 145°
2026-05-06 19:33 42.98542 10.07372 31438 ft 433 kts 146°
2026-05-06 19:33 42.97056 10.09263 31192 ft 431 kts 146°
2026-05-06 19:34 42.94157 10.12952 30731 ft 429 kts 146°
2026-05-06 19:34 42.92684 10.14825 30492 ft 428 kts 146°
2026-05-06 19:34 42.90512 10.17575 30142 ft 425 kts 146°
2026-05-06 19:34 42.88345 10.20309 29792 ft 424 kts 146°
2026-05-06 19:35 42.86186 10.23030 29441 ft 421 kts 146°
2026-05-06 19:35 42.84037 10.25739 29091 ft 419 kts 146°
2026-05-06 19:35 42.81904 10.28433 28741 ft 417 kts 146°
2026-05-06 19:35 42.79783 10.31119 28389 ft 415 kts 145°
2026-05-06 19:36 42.77722 10.33787 28043 ft 417 kts 141°
2026-05-06 19:36 42.75875 10.36867 27691 ft 423 kts 132°
2026-05-06 19:36 42.74396 10.40362 27338 ft 430 kts 122°
2026-05-06 19:36 42.73341 10.44201 26989 ft 436 kts 111°
2026-05-06 19:37 42.72764 10.48269 26639 ft 441 kts 101°
2026-05-06 19:37 42.72579 10.52438 26289 ft 441 kts 98°
2026-05-06 19:37 42.72424 10.56596 25938 ft 439 kts 98°
2026-05-06 19:37 42.72092 10.60677 25587 ft 430 kts 107°
2026-05-06 19:38 42.71349 10.64570 25237 ft 421 kts 115°
2026-05-06 19:38 42.70249 10.68204 24887 ft 412 kts 123°
2026-05-06 19:38 42.68844 10.71549 24541 ft 404 kts 129°
2026-05-06 19:38 42.67361 10.74782 24190 ft 402 kts 129°
2026-05-06 19:39 42.65884 10.78003 23837 ft 400 kts 129°
2026-05-06 19:39 42.64420 10.81198 23489 ft 398 kts 129°
2026-05-06 19:39 42.62964 10.84377 23139 ft 395 kts 129°
2026-05-06 19:39 42.61516 10.87539 22787 ft 393 kts 129°
2026-05-06 19:40 42.60072 10.90686 22437 ft 392 kts 127°
2026-05-06 19:40 42.58636 10.93804 22086 ft 388 kts 127°
2026-05-06 19:40 42.57211 10.96894 21736 ft 385 kts 127°
2026-05-06 19:40 42.55789 10.99969 21385 ft 383 kts 127°
2026-05-06 19:41 42.54371 11.03030 21034 ft 382 kts 127°
2026-05-06 19:41 42.52965 11.06065 20684 ft 380 kts 127°
2026-05-06 19:41 42.51565 11.09088 20335 ft 378 kts 127°
2026-05-06 19:41 42.50189 11.12058 19987 ft 376 kts 127°
2026-05-06 19:42 42.48798 11.15047 19637 ft 374 kts 127°
2026-05-06 19:42 42.47414 11.18022 19288 ft 373 kts 127°
2026-05-06 19:42 42.46035 11.20990 18850 ft 372 kts 127°
2026-05-06 19:42 42.44760 11.24049 18322 ft 376 kts 119°
2026-05-06 19:43 42.43901 11.27402 17791 ft 378 kts 107°
2026-05-06 19:43 42.43461 11.30894 17261 ft 373 kts 102°
2026-05-06 19:43 42.43086 11.34330 16737 ft 365 kts 102°
2026-05-06 19:43 42.42712 11.37704 16211 ft 359 kts 102°
2026-05-06 19:44 42.42340 11.41024 15693 ft 354 kts 103°
2026-05-06 19:44 42.41969 11.44292 15176 ft 349 kts 103°
2026-05-06 19:44 42.41600 11.47520 14574 ft 344 kts 103°
2026-05-06 19:44 42.41234 11.50707 13970 ft 340 kts 103°
2026-05-06 19:45 42.40657 11.53755 13370 ft 330 kts 117°
2026-05-06 19:45 42.39568 11.56418 12764 ft 318 kts 133°
2026-05-06 19:45 42.38082 11.58547 12175 ft 307 kts 147°
2026-05-06 19:45 42.36345 11.60059 11576 ft 296 kts 160°
2026-05-06 19:46 42.34451 11.61035 10973 ft 289 kts 167°
2026-05-06 19:46 42.32558 11.61909 10375 ft 286 kts 167°
2026-05-06 19:46 42.30689 11.62779 9769 ft 283 kts 166°
2026-05-06 19:46 42.28844 11.63643 9248 ft 276 kts 166°
2026-05-06 19:47 42.27063 11.64480 8858 ft 267 kts 166°
2026-05-06 19:47 42.25333 11.65284 8456 ft 258 kts 167°
2026-05-06 19:47 42.23653 11.66026 8062 ft 251 kts 168°
2026-05-06 19:47 42.22014 11.66731 7660 ft 244 kts 168°
2026-05-06 19:48 42.20407 11.67417 7261 ft 240 kts 168°
2026-05-06 19:48 42.18842 11.68085 6980 ft 234 kts 168°
2026-05-06 19:48 42.17295 11.68743 6712 ft 232 kts 168°
2026-05-06 19:48 42.15764 11.69421 6438 ft 232 kts 162°
2026-05-06 19:49 42.14476 11.70779 6160 ft 244 kts 131°
2026-05-06 19:49 42.13828 11.72923 5888 ft 253 kts 108°
2026-05-06 19:49 42.13516 11.75256 5618 ft 253 kts 104°
2026-05-06 19:49 42.13252 11.77567 5341 ft 252 kts 104°
2026-05-06 19:50 42.12983 11.79888 5067 ft 250 kts 103°
2026-05-06 19:50 42.12677 11.82182 4791 ft 248 kts 104°
2026-05-06 19:50 42.12363 11.84454 4515 ft 246 kts 104°
2026-05-06 19:50 42.12055 11.86719 4240 ft 245 kts 104°
2026-05-06 19:51 42.11755 11.88960 4035 ft 240 kts 104°
2026-05-06 19:51 42.11475 11.91138 4003 ft 233 kts 104°
2026-05-06 19:51 42.11042 11.93200 4009 ft 226 kts 120°
2026-05-06 19:51 42.10326 11.95069 4017 ft 224 kts 123°
2026-05-06 19:52 42.09571 11.96895 4011 ft 223 kts 124°
2026-05-06 19:52 42.08812 11.98713 3990 ft 223 kts 124°
2026-05-06 19:52 42.08062 12.00517 3812 ft 218 kts 124°
2026-05-06 19:52 42.07341 12.02271 3637 ft 211 kts 124°
2026-05-06 19:53 42.06634 12.03986 3464 ft 208 kts 124°
2026-05-06 19:53 42.05940 12.05680 3290 ft 205 kts 123°
2026-05-06 19:53 42.05258 12.07342 3124 ft 202 kts 124°
2026-05-06 19:53 42.04603 12.08963 3043 ft 192 kts 124°
2026-05-06 19:54 42.03990 12.10505 2991 ft 188 kts 123°
2026-05-06 19:54 42.03365 12.12052 3012 ft 188 kts 124°
2026-05-06 19:54 42.02743 12.13598 2887 ft 187 kts 124°
2026-05-06 19:54 42.02145 12.15097 2762 ft 178 kts 124°
2026-05-06 19:55 42.01571 12.16554 2699 ft 175 kts 124°
2026-05-06 19:55 42.01011 12.17998 2700 ft 173 kts 124°
2026-05-06 19:55 42.00292 12.19241 2710 ft 166 kts 146°
2026-05-06 19:55 41.99310 12.19970 2712 ft 160 kts 166°
2026-05-06 19:56 41.98254 12.20413 2686 ft 158 kts 167°
2026-05-06 19:56 41.97242 12.20841 2569 ft 145 kts 167°
2026-05-06 19:56 41.96306 12.21235 2405 ft 138 kts 167°
2026-05-06 19:56 41.95385 12.21621 2222 ft 142 kts 163°
2026-05-06 19:57 41.94417 12.22027 2043 ft 149 kts 163°
2026-05-06 19:57 41.93428 12.22442 1847 ft 149 kts 163°
2026-05-06 19:57 41.92436 12.22859 1650 ft 149 kts 163°
2026-05-06 19:57 41.91448 12.23274 1452 ft 149 kts 163°
2026-05-06 19:58 41.90467 12.23686 1257 ft 146 kts 163°
2026-05-06 19:58 41.89509 12.24097 1059 ft 144 kts 162°
2026-05-06 19:58 41.88553 12.24493 858 ft 143 kts 162°
2026-05-06 19:58 41.87612 12.24886 687 ft 143 kts 163°
2026-05-06 19:59 41.86663 12.25279 505 ft 143 kts 163°
2026-05-06 19:59 41.85719 12.25678 305 ft 142 kts 162°
2026-05-06 19:59 41.84777 12.26075 117 ft 142 kts 163°
2026-05-06 19:59 41.83861 12.26458 24 ft 128 kts 162°
2026-05-06 20:00 41.83154 12.26759 14 ft 84 kts 162°
2026-05-06 20:00 41.82756 12.26931 18 ft 43 kts 161°
2026-05-06 20:00 41.82471 12.27050 15 ft 42 kts 162°
2026-05-06 20:00 41.82199 12.27137 12 ft 36 kts 172°
2026-05-06 20:01 41.81968 12.27113 15 ft 32 kts 193°
2026-05-06 20:01 41.81851 12.27078 15 ft 1 kts 193°
2026-05-06 20:01 41.81842 12.27075 16 ft 0 kts 193°
2026-05-06 20:02 41.81841 12.27075 15 ft 1 kts 193°
2026-05-06 20:02 41.81826 12.27070 15 ft 0 kts 193°
2026-05-06 20:02 41.81824 12.27070 15 ft 0 kts 193°
2026-05-06 20:03 41.81801 12.27063 15 ft 5 kts 193°
2026-05-06 20:03 41.81797 12.27061 15 ft 1 kts 192°
2026-05-06 20:04 41.81787 12.27059 15 ft 5 kts 191°
2026-05-06 20:04 41.81727 12.27048 15 ft 12 kts 182°
2026-05-06 20:04 41.81632 12.27070 15 ft 16 kts 163°
2026-05-06 20:04 41.81514 12.27118 16 ft 19 kts 163°
2026-05-06 20:05 41.81380 12.27176 15 ft 21 kts 163°
2026-05-06 20:05 41.81241 12.27233 15 ft 21 kts 162°
2026-05-06 20:05 41.81095 12.27296 15 ft 23 kts 164°
2026-05-06 20:05 41.80959 12.27350 15 ft 20 kts 164°
2026-05-06 20:06 41.80825 12.27326 15 ft 18 kts 194°
2026-05-06 20:06 41.80716 12.27303 15 ft 16 kts 199°
2026-05-06 20:06 41.80648 12.27192 15 ft 16 kts 251°
2026-05-06 20:06 41.80612 12.27052 16 ft 16 kts 251°
2026-05-06 20:07 41.80573 12.26914 16 ft 16 kts 249°
2026-05-06 20:07 41.80534 12.26776 15 ft 16 kts 251°
2026-05-06 20:07 41.80496 12.26638 15 ft 16 kts 249°
2026-05-06 20:07 41.80457 12.26501 15 ft 16 kts 249°
2026-05-06 20:08 41.80420 12.26365 15 ft 16 kts 249°
2026-05-06 20:08 41.80384 12.26228 17 ft 16 kts 251°
2026-05-06 20:08 41.80346 12.26096 15 ft 15 kts 250°
2026-05-06 20:08 41.80312 12.25964 15 ft 15 kts 252°
2026-05-06 20:09 41.80277 12.25835 16 ft 15 kts 246°
2026-05-06 20:09 41.80239 12.25708 17 ft 15 kts 250°
2026-05-06 20:09 41.80207 12.25582 15 ft 14 kts 252°
2026-05-06 20:09 41.80169 12.25455 15 ft 15 kts 249°
2026-05-06 20:10 41.80134 12.25330 16 ft 14 kts 249°
2026-05-06 20:10 41.80092 12.25209 15 ft 14 kts 228°
2026-05-06 20:10 41.80011 12.25150 15 ft 13 kts 203°
2026-05-06 20:10 41.79930 12.25102 15 ft 12 kts 204°
2026-05-06 20:11 41.79854 12.25056 15 ft 12 kts 205°
2026-05-06 20:11 41.79781 12.25005 15 ft 10 kts 215°
2026-05-06 20:11 41.79756 12.24936 15 ft 8 kts 251°
2026-05-06 20:11 41.79742 12.24882 15 ft 3 kts 249°
2026-05-06 20:12 41.79735 12.24861 16 ft 2 kts 249°
2026-05-06 20:12 41.79731 12.24846 16 ft 1 kts 249°